Estación de Lebu INIA

Ultimos registro cada 15 minutos 29
Estación Fecha / Hora Temperatura Humedad Lluvia Velocidad Dirección Radiación Presion
29 Lebu INIA 09-05-2026 07:00 6,8 66,3 0 3,8 196 0 1120
28 Lebu INIA 09-05-2026 06:45 6,9 64,6 0 4 195 0 1119
27 Lebu INIA 09-05-2026 06:30 6,9 65,4 0 4 195 0 1119
26 Lebu INIA 09-05-2026 06:15 6,8 66,7 0 3,8 194 0 1117
25 Lebu INIA 09-05-2026 06:00 6,8 67,5 0 4,1 192 0 1116
24 Lebu INIA 09-05-2026 05:45 6,7 68,6 0 4 187 0 1115
23 Lebu INIA 09-05-2026 05:30 6,8 69,4 0 4 184 0 1115
22 Lebu INIA 09-05-2026 05:15 7,1 68,5 0 4,4 186 0 1117
21 Lebu INIA 09-05-2026 05:00 7,2 67 0 4,4 185 0 1118
20 Lebu INIA 09-05-2026 04:45 7,3 67,4 0 3,8 182 0 1117
19 Lebu INIA 09-05-2026 04:30 7,4 65 0 4,1 180 0 1120
18 Lebu INIA 09-05-2026 04:15 7,5 66,5 0 3,6 177 0 1114
17 Lebu INIA 09-05-2026 04:00 7,6 65,3 0 4,3 172 0 1119
16 Lebu INIA 09-05-2026 03:45 7,2 66,8 0 4,1 174 0 1115
15 Lebu INIA 09-05-2026 03:30 7,1 72,1 0 3,3 178 0 1116
14 Lebu INIA 09-05-2026 03:15 7 73,8 0 3,2 182 0 1116
13 Lebu INIA 09-05-2026 03:00 7,1 74,9 0 2,9 178 0 1116
12 Lebu INIA 09-05-2026 02:45 7,1 73,9 0 3,4 186 0 1121
11 Lebu INIA 09-05-2026 02:30 7,3 75,3 0 3,1 183 0 1117
10 Lebu INIA 09-05-2026 02:15 7,4 74,9 0 3,3 181 0 1115
9 Lebu INIA 09-05-2026 02:00 7,6 74,6 0 3,4 173 0 1118
8 Lebu INIA 09-05-2026 01:45 7,8 74,6 0 4 179 0 1118
7 Lebu INIA 09-05-2026 01:30 7,9 74,4 0 4,3 179 0 1117
6 Lebu INIA 09-05-2026 01:15 7,9 74,7 0 3,8 176 0 1118
5 Lebu INIA 09-05-2026 01:00 7,8 77 0 3,4 180 0 1121
4 Lebu INIA 09-05-2026 00:45 7,9 78,7 0 3,8 179 0 1118
3 Lebu INIA 09-05-2026 00:30 8 79,3 0 3,9 185 0 1116
2 Lebu INIA 09-05-2026 00:15 8,3 80,3 0 4 182 0 1116
1 Lebu INIA 09-05-2026 00:00 8,4 80 0 4,1 181 0 0